[[{"header":{"parameterUnit":"m.s-1","parameterCategory":1,"la1":30.2991,"la2":30.254,"lo1":-89.0895,"lo2":-89.0444,"dy":0.0017,"dx":0.0017,"nx":28,"ny":28,"refTime":"2023-08-08T03:00:00:Z","depth":0,"parameterNumber":2,"parameterNumberName":"U-component_of_WINDS"},"data":[0,0,0,0,0,0,0,0,0,0,0,0,0,0,0,0,0,0,0,0,0,0,0,0,0,0,0,0,0,0,0,0,0,0,0,0,0,0,0,0,0,0,0,0,0,0,0,0,0,0,0,0,0,0,0,0,0,0,5.6085,5.6087,0,5.6245,5.6247,5.6249,5.6181,5.6177,5.6173,5.617,5.6334,5.6342,5.635,0,0,0,0,0,0,0,0,0,0,0,0,0,5.5719,5.5726,5.6085,5.6087,5.6089,5.6245,5.6247,5.6249,5.6182,5.6177,5.6172,5.6168,5.6332,5.6341,5.6351,0,0,0,0,0,0,0,0,0,0,0,0,0,5.5879,5.5729,5.6084,5.6074,5.6075,5.6244,5.6247,5.625,5.6183,5.6177,5.6171,5.6166,5.6329,5.634,5.6352,5.6542,0,0,5.6389,5.6394,0,0,0,0,0,0,0,0,5.587,5.5892,5.6073,5.6075,5.6076,5.6187,5.6178,5.6348,5.6184,5.6142,5.6169,5.6163,5.629,5.6305,5.6348,5.655,5.6557,5.639,5.6397,5.6402,5.6405,0,0,0,0,0,0,0,5.5859,5.5885,5.6148,5.6076,5.6078,5.6061,5.6077,5.621,5.6246,5.6145,5.614,5.616,5.629,5.6336,5.6351,5.6559,5.6389,5.64,5.6407,5.6412,5.6922,5.6928,0,0,0,0,0,0,5.5848,5.5876,5.6143,5.6153,5.5956,5.6072,5.609,5.6157,5.6245,5.6252,5.6165,5.6156,5.6319,5.6337,5.6357,5.6582,5.6402,5.6413,5.642,5.6915,5.6923,5.693,0,0,0,0,0,0,5.584,5.5872,5.6137,5.6013,5.6046,5.6085,5.616,5.6163,5.621,5.626,5.6266,5.6206,5.6315,5.634,5.6496,5.6587,5.6419,5.6429,5.6908,5.6918,5.6927,5.7037,0,0,0,0,0,0,5.583,5.587,5.5943,5.6016,5.6053,5.6274,5.6166,5.6171,5.6231,5.6221,5.63,5.6308,5.6312,5.6478,5.6507,5.66,5.6439,5.69,5.6912,5.6924,5.7025,5.7049,5.7069,0,0,0,0,0,5.5817,5.5968,5.5947,5.5979,5.6145,5.6279,5.63,5.6302,5.6238,5.6311,5.6343,5.6305,5.6573,5.6495,5.6527,5.6625,5.6894,5.6909,5.6923,5.7015,5.7044,5.7068,0,0,0,0,0,0,5.5906,5.5977,5.5955,5.6134,5.6201,5.6267,5.636,5.6333,5.642,5.6407,5.6406,5.6425,5.6585,5.6621,5.6533,5.6812,5.6724,5.6745,5.6783,5.6811,5.6832,5.6819,5.6449,0,0,0,0,0,5.5946,5.6049,5.6106,5.6259,5.6293,5.6321,5.638,5.6375,5.6445,5.6473,5.6516,5.6585,5.6684,5.675,5.6844,5.703,5.7045,5.7114,5.7136,5.7153,5.7171,5.727,5.73,5.6977,5.6977,5.6977,0,0,5.603,5.6082,5.6148,5.6278,5.6329,5.6435,5.6345,5.6462,5.6541,5.6491,5.664,5.6674,5.6751,5.6922,5.6999,5.6956,5.7264,5.7172,5.7186,5.7194,5.7288,5.7318,5.7345,5.6987,5.6985,5.6983,0,0,5.6237,5.6288,5.6419,5.6472,5.6551,5.6568,5.66,5.667,5.6691,5.684,5.6804,5.6898,5.707,5.7125,5.7175,5.7402,5.7369,5.7433,5.7548,5.7644,5.7669,5.7692,5.777,5.7799,5.7451,5.7452,5.7452,0,5.6332,5.6491,5.649,5.661,5.6667,5.6626,5.6758,5.681,5.6916,5.6956,5.6906,5.7119,5.7168,5.735,5.7406,5.7449,5.7483,5.7423,5.7666,5.7688,5.7709,5.7784,5.7814,5.7459,5.7458,5.7457,5.7457,0,5.6602,5.6713,5.681,5.6911,5.698,5.7105,5.7123,5.7192,5.7182,5.7204,5.7356,5.7413,5.7517,5.756,5.7552,5.7741,5.7712,5.7665,5.7575,5.7747,5.7817,5.7846,5.7469,5.7466,5.7464,5.7462,0,0,5.687,5.6969,5.7004,5.7048,5.7132,5.7217,5.734,5.7441,5.7499,5.7574,5.7675,5.7821,5.7777,5.7834,5.7832,5.7917,5.8089,5.7858,5.786,5.7897,5.8298,5.8331,5.8365,5.8069,5.8074,5.8079,5.8291,0,5.7081,5.7296,5.7298,5.7496,5.7596,5.7559,5.7665,5.7727,5.7751,5.784,5.7866,5.7968,5.7904,5.7938,5.802,5.8051,5.8169,5.8036,5.8162,5.8166,5.8141,5.8402,5.8438,5.8636,5.8319,5.8323,5.8327,0,5.7357,5.7439,5.7646,5.7712,5.7755,5.785,5.7942,5.8028,5.8097,5.8108,5.8172,5.8156,5.828,5.8188,5.8358,5.8267,5.8318,5.8341,5.8349,5.8359,5.8255,5.8417,5.8699,5.8728,5.837,5.8367,5.8364,0,5.7528,5.769,5.7834,5.7874,5.7956,5.8024,5.8061,5.8124,5.8184,5.8265,5.8303,5.8397,5.8448,5.8521,5.8531,5.8463,5.8701,5.861,5.8712,5.8712,5.8762,5.8758,5.9054,5.88,5.8799,5.8799,5.8798,0,5.7763,5.7891,5.7912,5.8,5.8141,5.8143,5.8282,5.8314,5.837,5.8464,5.8438,5.8525,5.8534,5.8624,5.8633,5.877,5.8794,5.8806,5.8806,5.8807,5.8805,5.8839,5.8825,5.8806,5.8805,5.8803,5.8802,0,5.7978,5.7997,5.8151,5.8216,5.8235,5.8336,5.839,5.8474,5.8495,5.8613,5.8641,5.8673,5.8778,5.8795,5.8919,5.8924,5.9088,5.9076,5.9065,5.9062,5.9162,5.9151,5.9488,5.9531,5.9251,5.9254,5.9256,0,5.8125,5.8222,5.8297,5.8357,5.8397,5.8495,5.8555,5.856,5.8624,5.8709,5.8782,5.8884,5.8966,5.9135,5.9169,5.9263,5.9251,5.9363,5.9265,5.9262,5.925,5.9243,5.9251,5.9381,5.9384,5.9386,5.9388,0,5.8385,5.8389,5.8477,5.8569,5.8641,5.8714,5.8782,5.8833,5.8846,5.8919,5.9025,5.9089,5.9214,5.9315,5.9407,5.9445,5.9419,5.9419,5.9447,5.9448,5.9436,5.9441,5.9113,5.9411,5.9409,5.9407,5.9406,5.9405,5.8569,5.8652,5.8716,5.8815,5.8866,5.893,5.9011,5.9042,5.913,5.9232,5.923,5.9346,5.941,5.9532,5.9576,5.9666,5.963,5.9672,5.9681,5.9691,5.9699,5.9424,5.9684,5.9683,5.9682,5.9682,5.9681,0,5.8824,5.8863,5.8954,5.9049,5.9126,5.9095,5.9168,5.9235,5.9337,5.94,5.948,5.9601,5.9698,5.974,5.9835,5.9899,5.9889,5.9924,5.9918,5.9926,5.9728,5.9692,5.993,5.993,5.993,5.993,5.993,5.993,5.8966,5.9104,5.9116,5.9279,5.9317,5.943,5.9475,5.9533,5.9582,5.9718,5.9799,5.9825,5.9879,5.9977,6.0064,6.0074,6.0109,6.0149,6.0153,5.9966,5.9941,5.9917,5.9883,6.0157,6.0157,6.0344,6.0345,6.0347]},{"header":{"parameterUnit":"m.s-1","parameterCategory":1,"la1":30.2991,"la2":30.254,"lo1":-89.0895,"lo2":-89.0444,"dy":0.0017,"dx":0.0017,"nx":28,"ny":28,"refTime":"2023-08-08T03:00:00:Z","depth":0,"parameterNumber":3,"parameterNumberName":"V-component_of_WINDS"},"data":[0,0,0,0,0,0,0,0,0,0,0,0,0,0,0,0,0,0,0,0,0,0,0,0,0,0,0,0,0,0,0,0,0,0,0,0,0,0,0,0,0,0,0,0,0,0,0,0,0,0,0,0,0,0,0,0,0,0,1.5883,1.5884,0,1.5996,1.5997,1.5999,1.6014,1.6013,1.6012,1.6011,1.6127,1.6131,1.6135,0,0,0,0,0,0,0,0,0,0,0,0,0,1.5678,1.5681,1.5883,1.5884,1.5885,1.5996,1.5997,1.5999,1.6014,1.6013,1.6012,1.601,1.6126,1.6131,1.6136,0,0,0,0,0,0,0,0,0,0,0,0,0,1.5776,1.5682,1.5882,1.5906,1.591,1.5996,1.5998,1.5999,1.6015,1.6013,1.6011,1.601,1.6124,1.613,1.6136,1.6206,0,0,1.6155,1.6158,0,0,0,0,0,0,0,0,1.5771,1.5784,1.5901,1.5905,1.5909,1.5989,1.5968,1.6069,1.6015,1.5975,1.6011,1.6009,1.6083,1.6092,1.6117,1.6212,1.6217,1.6156,1.6159,1.6162,1.6164,0,0,0,0,0,0,0,1.5764,1.5779,1.5927,1.5903,1.5908,1.5911,1.5923,1.5987,1.6036,1.5978,1.5979,1.5993,1.6084,1.6111,1.612,1.6218,1.6155,1.6161,1.6165,1.6167,1.6374,1.6376,0,0,0,0,0,0,1.5753,1.5773,1.5924,1.5931,1.5834,1.5916,1.593,1.5965,1.6036,1.6045,1.5994,1.5993,1.6101,1.6113,1.6124,1.621,1.6162,1.6168,1.6171,1.6373,1.6375,1.6377,0,0,0,0,0,0,1.5748,1.5766,1.5919,1.5853,1.5872,1.5921,1.5961,1.5968,1.5995,1.6048,1.6056,1.6012,1.61,1.6115,1.6185,1.6214,1.617,1.6176,1.6371,1.6373,1.6376,1.6382,0,0,0,0,0,0,1.5742,1.5764,1.5792,1.5853,1.5876,1.5979,1.5963,1.5972,1.6005,1.6005,1.6067,1.6076,1.61,1.6176,1.6191,1.6222,1.6181,1.6368,1.6372,1.6375,1.638,1.6385,1.6389,0,0,0,0,0,1.5735,1.579,1.5793,1.5811,1.5911,1.5981,1.5994,1.6021,1.6008,1.6035,1.6069,1.6074,1.6208,1.6183,1.6201,1.6233,1.6367,1.6371,1.6375,1.6378,1.6384,1.6389,0,0,0,0,0,0,1.5731,1.5798,1.5803,1.5879,1.5924,1.5983,1.602,1.6027,1.6077,1.6075,1.6106,1.612,1.6188,1.6218,1.6189,1.6303,1.6286,1.6294,1.6282,1.6289,1.6293,1.6285,1.6186,0,0,0,0,0,1.5739,1.579,1.5846,1.5908,1.593,1.5971,1.6002,1.6019,1.6067,1.6086,1.6125,1.6171,1.6223,1.6258,1.6309,1.6383,1.6397,1.6414,1.6419,1.6423,1.6429,1.6469,1.6478,1.639,1.639,1.639,0,0,1.5757,1.5799,1.583,1.5908,1.5945,1.5997,1.5987,1.6042,1.6081,1.6095,1.6163,1.6193,1.6246,1.6318,1.6352,1.6345,1.6456,1.6428,1.643,1.6435,1.6474,1.6483,1.649,1.6393,1.6393,1.6392,0,0,1.5814,1.5852,1.5907,1.5944,1.5999,1.6026,1.6039,1.6097,1.6117,1.6186,1.6197,1.6242,1.6332,1.637,1.64,1.647,1.6476,1.6485,1.6511,1.655,1.6556,1.6563,1.6587,1.6595,1.6492,1.6492,1.6492,0,1.5829,1.5908,1.5934,1.5989,1.6023,1.6037,1.6092,1.6126,1.6196,1.6218,1.6209,1.6321,1.6358,1.6439,1.6455,1.648,1.6495,1.6479,1.6553,1.656,1.6566,1.6589,1.6598,1.6492,1.6492,1.6492,1.6492,0,1.5922,1.5976,1.6014,1.608,1.6118,1.6173,1.6207,1.6242,1.6255,1.6282,1.6351,1.6395,1.6455,1.6475,1.6489,1.6557,1.6551,1.6547,1.653,1.6575,1.6597,1.6606,1.6494,1.6493,1.6493,1.6493,0,0,1.5983,1.6062,1.6075,1.6104,1.6166,1.6208,1.6263,1.6321,1.635,1.6396,1.6443,1.6517,1.6513,1.6548,1.6565,1.66,1.665,1.6591,1.6593,1.6601,1.6728,1.673,1.674,1.6654,1.6656,1.6657,1.6723,0,1.6048,1.6146,1.6171,1.6254,1.6304,1.6316,1.6364,1.6406,1.6432,1.6478,1.6506,1.6559,1.655,1.6571,1.6605,1.6637,1.6676,1.6633,1.6697,1.6699,1.6684,1.6752,1.6756,1.6815,1.6732,1.6733,1.6735,0,1.6137,1.6185,1.6273,1.6327,1.6348,1.6391,1.6445,1.6489,1.6536,1.6552,1.659,1.6604,1.666,1.6639,1.6717,1.6686,1.6714,1.6733,1.6736,1.6744,1.672,1.6761,1.6835,1.6844,1.6749,1.6748,1.6747,0,1.6172,1.6259,1.6322,1.6347,1.6411,1.644,1.6468,1.6514,1.6547,1.6594,1.6615,1.6668,1.6697,1.6738,1.6765,1.6747,1.684,1.6821,1.6854,1.6854,1.6874,1.6873,1.6953,1.6891,1.6891,1.6891,1.6891,0,1.6242,1.6296,1.6339,1.6378,1.6437,1.6465,1.6523,1.6551,1.6591,1.6635,1.6649,1.669,1.6723,1.6769,1.679,1.685,1.6863,1.6878,1.6883,1.6877,1.6875,1.6896,1.6892,1.6893,1.6893,1.6892,1.6892,0,1.6292,1.6323,1.6393,1.6447,1.6461,1.6503,1.6549,1.6587,1.6612,1.6668,1.6683,1.6723,1.6777,1.6807,1.6875,1.689,1.6957,1.696,1.6941,1.6943,1.6974,1.6971,1.7071,1.7086,1.7014,1.7014,1.7015,0,1.6335,1.6376,1.6434,1.6464,1.6492,1.6542,1.6575,1.6602,1.6636,1.6692,1.6723,1.6777,1.6823,1.6908,1.6943,1.6994,1.6999,1.703,1.7007,1.6998,1.6999,1.6996,1.7,1.7035,1.7035,1.7036,1.7036,0,1.6407,1.642,1.6467,1.652,1.6558,1.6601,1.6643,1.6667,1.6701,1.6738,1.6793,1.6828,1.6897,1.695,1.7004,1.7032,1.704,1.7043,1.7053,1.7048,1.7035,1.7042,1.6952,1.7041,1.704,1.704,1.704,1.704,1.6455,1.6492,1.6538,1.6589,1.6623,1.6662,1.67,1.673,1.6776,1.6834,1.6847,1.6905,1.6949,1.7022,1.7051,1.7096,1.7091,1.7106,1.711,1.7113,1.7114,1.7027,1.7106,1.7106,1.7106,1.7106,1.7106,0,1.6528,1.6558,1.6605,1.6663,1.6703,1.6706,1.6752,1.6785,1.6836,1.6877,1.692,1.6983,1.7034,1.7072,1.7125,1.7153,1.7158,1.7166,1.7164,1.717,1.7116,1.7102,1.7161,1.7161,1.7161,1.7161,1.7161,1.7161,1.6571,1.6633,1.665,1.6729,1.6758,1.6815,1.684,1.6876,1.6908,1.6977,1.702,1.7044,1.7084,1.7139,1.7185,1.7195,1.7214,1.7221,1.7232,1.718,1.7174,1.7169,1.7155,1.7225,1.7225,1.7282,1.7283,1.7283]}]]